Погода в Курахово

Украина / Донецкая область     47°59′15″N   37°16′30″E
темп.,
°C
ветер,
м/с
пор.,
м/с
влажн.,
%
обл.,
%
осадки,
мм/ч
давл.,
гПа
погр.,
м
27 ноября, сб
сб2723:00+2юв6148798 0.0 1016285
02:00+4юв81777100 0.0 1014469
05:00+5юв81975100 0.0 1013534
08:00+4юв91879100 0.5 1011454
11:00+6ююв9197169 0.8 1009605
14:00+8ююв71473100 0.8 1008592
17:00+9ююв6129483 0.0 1008345
20:00+8ю511951 0.0 1008218
28 ноября, вс
вс2823:00+7ю4119636 0.0 1009232
02:00+7ю4109882 0.0 1009209
05:00+7ююз379881 0.0 1009172
08:00+7ю359729 0.0 1010109
11:00+12ююз46760 0.0 1010381
14:00+14ю46654 0.0 1010596
17:00+10ююв4792100 0.0 1010124
20:00+9ююв4998100 0.2 1010259
29 ноября, пн
пн2923:00+11ююв61497100 5.6 1009773
02:00+11ю81696100 6.9 1007655
05:00+11ю81491100 0.2 1006808
08:00+11ю8169173 0.2 1006561
11:00+12ю91890100 0.9 1003862
14:00+13ю11217971 1.6 1000767
17:00+13ю11218047 0.5 998804
20:00+13ююз112088100 1.8 997900
30 ноября, вт
вт3023:00+13ююз101785100 0.1 9961020
02:00+11юз81382100 0.4 997659
05:00+8з61181100 0.0 998507
08:00+7зюз41071100 0.1 1001592
11:00+8зюз6951100 0.1 1002704
14:00+9зюз58475 0.1 1001868
17:00+6юз3761100 0.0 1001155
20:00+4з3861100 0.0 1000247
1 декабря, ср
ср123:00+3сз51061100 0.0 999545
02:00+2зсз61169100 0.0 1002800
05:00+1зсз61278100 0.0 1003800
08:000з511805 0.0 1006600
11:00+2з61054100 0.0 1007779
14:00+4зюз61247100 0.0 10061314
17:00+3юз6136299 0.0 1006759
20:00+3зюз7116198 0.0 1007802